* Astronomy

Members Login
Username 
 
Password 
    Remember Me  
Post Info TOPIC: Asteroid 2012 BD77


L

Posts: 131433
Date:
Asteroid 2012 BD77
Permalink  
 


Orbital elements:
2012 BD77                                                Earth MOID = 0.3791 AU
Epoch 2012 Mar. 14.0 TT = JDT 2456000.5                 MPC
M 339.95415              (2000.0)            P               Q
n   0.47166953     Peri.   66.37110     -0.85509360     +0.28487244
a   1.6344721      Node   127.13679     -0.33087392     -0.94310027
e   0.2467108      Incl.   32.91573     +0.39917087     -0.17149217
P   2.09           H   21.6           G   0.15           U   7

MPEC 2012 - B85



__________________
Page 1 of 1  sorted by
 
Quick Reply

Please log in to post quick replies.



Create your own FREE Forum
Report Abuse
Powered by ActiveBoard